Simultaneous Nadir Overpasses (SNOs) Predictions

Prediction of SNOs between TERRA and METOP-C Satellite Orbit:

Table of predicted SNOs for the next 14.0 days since TLE Epoch: 1/10/2025
Index Date (TERRA) Time (TERRA) Lat,Lon (TERRA) SZA (TERRA ) Date (METOP-C) Time (METOP-C) Lat,Lon (METOP-C) SZA (METOP-C ) Distance(km) Time Diff (sec)
1 01/10/2025 22:55:01 45.02, 167.71 72.22 01/10/2025 22:54:47 45.01, 167.85 72.19 11.34 14
2 01/10/2025 23:42:36 -51.46, -22.11 102.76 01/10/2025 23:43:38 -51.47, -22.10 102.83 1.00 62
3 01/13/2025 12:34:56 -45.02, 142.69 108.07 01/13/2025 12:34:29 -44.97, 142.92 108.15 18.77 27
4 01/13/2025 13:23:19 48.18, -48.46 74.36 01/13/2025 13:24:12 48.17, -48.47 74.29 1.11 53
5 01/16/2025 02:14:42 45.05, 117.71 71.62 01/16/2025 02:14:05 44.97, 118.02 71.50 25.48 37
6 01/16/2025 03:03:26 -47.42, -73.77 106.58 01/16/2025 03:04:06 -47.42, -73.70 106.66 5.32 40
7 01/18/2025 15:54:35 -45.04, 92.69 108.77 01/18/2025 15:53:45 -44.97, 93.09 108.90 32.79 50
8 01/18/2025 16:43:20 46.88, -98.96 72.62 01/18/2025 16:43:51 46.84, -98.84 72.50 10.45 31
9 01/21/2025 05:34:20 45.04, 67.71 70.81 01/21/2025 05:33:21 44.94, 68.18 70.64 39.11 59
10 01/21/2025 06:23:25 -46.17,-124.24 108.36 01/21/2025 06:23:44 -46.12,-124.04 108.49 15.98 19
11 01/21/2025 06:55:33 69.34,-162.49 118.48 01/21/2025 06:56:45 68.97,-164.71 117.94 97.12 72
12 01/23/2025 19:14:13 -45.01, 42.68 109.69 01/23/2025 19:13:02 -44.92, 43.26 109.87 46.15 71
13 01/23/2025 20:03:18 45.65,-149.40 70.79 01/23/2025 20:03:28 45.61,-149.14 70.64 21.21 10



Historial Predications of SNOs between TERRA and METOP-C
